EDT,Max TemperatureF,Mean TemperatureF,Min TemperatureF,Max Dew PointF,MeanDew PointF,Min DewpointF,Max Humidity, Mean Humidity, Min Humidity, Max Sea Level PressureIn, Mean Sea Level PressureIn, Min Sea Level PressureIn, Max VisibilityMiles, Mean VisibilityMiles, Min VisibilityMiles, Max Wind SpeedMPH, Mean Wind SpeedMPH, Max Gust SpeedMPH,PrecipitationIn, CloudCover, Events, WindDirDegrees
2014-4-1,83,71,58,68,63,58,100,72,43,30.17,30.13,30.09,10,9,5,14,5,19,0.00,0,,53
2014-4-2,82,71,59,67,64,58,100,73,45,30.18,30.14,30.10,10,10,10,15,6,19,0.00,1,,129
2014-4-3,83,72,61,69,65,61,100,79,58,30.14,30.09,30.04,10,10,10,21,9,24,0.00,0,,136
2014-4-4,84,75,65,71,67,65,100,78,55,30.07,30.03,30.00,10,10,9,17,7,22,0.00,0,,157
2014-4-5,83,75,66,71,69,67,100,82,63,30.05,30.02,29.98,10,10,7,14,5,17,0.00,1,,241
2014-4-6,85,76,66,71,69,64,100,79,58,30.04,29.98,29.93,10,10,8,21,7,27,0.00,0,,164
2014-4-7,88,79,70,75,71,68,100,78,55,29.97,29.91,29.85,10,10,8,24,12,31,0.00,1,,150
2014-4-8,84,75,66,79,72,63,100,87,73,29.94,29.85,29.81,10,6,1,28,15,36,0.53,6,Rain,238
2014-4-9,75,69,62,61,57,54,84,69,53,30.17,30.04,29.92,10,10,10,25,14,34,0.00,3,,306
2014-4-10,83,71,59,59,56,54,90,65,39,30.26,30.20,30.15,10,10,10,18,10,26,0.00,1,,60
2014-4-11,85,73,60,68,61,54,84,65,46,30.23,30.16,30.10,10,10,10,15,7,25,0.00,2,,59
2014-4-12,87,76,65,70,65,61,100,72,43,30.17,30.11,30.04,10,10,9,17,8,22,0.00,3,,75
2014-4-13,87,76,65,73,69,64,100,83,65,30.09,30.04,29.97,10,10,9,20,10,25,0.00,3,,58
2014-4-14,86,78,69,75,72,69,100,85,69,30.00,29.95,29.89,10,8,0,17,8,21,0.00,4,Fog,127
2014-4-15,86,79,71,79,76,72,100,87,74,29.95,29.90,29.87,10,8,4,24,11,31,0.00,5,,193
2014-4-16,81,75,68,71,67,63,93,80,67,30.08,30.01,29.94,10,10,10,20,10,24,0.00,6,,35
2014-4-17,90,80,69,76,72,69,100,82,63,30.13,30.07,30.04,10,8,1,25,11,32,0.66,5,Rain-Thunderstorm,72
2014-4-18,85,79,72,77,73,72,100,85,69,30.08,30.01,29.93,10,10,9,23,11,30,0.00,3,,114
2014-4-19,78,74,69,76,64,59,94,79,64,30.01,29.95,29.89,10,8,0,30,12,41,0.54,5,Rain-Thunderstorm,266
2014-4-20,77,72,66,64,61,58,84,72,60,30.06,30.02,29.97,10,10,10,16,8,22,0.00,6,,326
2014-4-21,75,68,60,65,61,58,97,81,64,30.06,30.01,29.94,10,10,9,18,9,23,0.00,1,,358
2014-4-22,77,69,61,64,61,57,93,77,60,29.98,29.93,29.88,10,10,9,16,8,21,0.00,1,,329
2014-4-23,78,71,64,67,64,62,93,77,60,29.99,29.94,29.90,10,10,6,18,7,24,0.00,2,,294
2014-4-24,81,73,64,67,65,63,100,79,58,30.03,29.98,29.94,10,9,4,14,5,18,0.00,0,,271
2014-4-25,84,75,66,68,65,59,100,73,46,30.04,29.99,29.95,10,9,5,15,6,19,0.00,0,,312
2014-4-26,85,77,68,71,68,64,93,72,51,30.02,29.98,29.95,10,10,10,20,6,23,0.00,0,,322
2014-4-27,89,79,69,73,70,64,100,72,44,30.01,29.97,29.92,10,10,8,20,8,23,0.00,0,,165
2014-4-28,90,80,70,74,70,67,97,74,50,29.98,29.93,29.88,10,10,8,22,9,27,0.00,0,,149
2014-4-29,91,83,74,76,73,66,100,74,47,29.95,29.91,29.87,10,9,7,23,10,29,0.00,1,,149
2014-4-30,89,82,74,77,74,69,100,82,63,30.04,30.01,29.94,10,9,2,20,10,24,0.07,3,Rain,148